Regional Weather Roundup
Issued by NWS Charleston, WV

Home | Current Version | Previous Version | Graphics & Text | Print | Product List | Glossary On
Versions: 1 2 3 4 5 6 7 8 9 10 11 12 13 14 15 16 17 18 19 20 21 22 23 24 25 26 27 28 29 30 31 32 33 34 35 36 37 38 39 40 41 42 43 44 45 46 47 48 49
000
ASUS41 KRLX 081010
RWRRLX
West Virginia Regional Weather Roundup
National Weather Service Charleston WV
500 AM EST MON FEB 08 2016

Note: "fair" indicates few or no clouds below 12,000 feet with no
significant weather and/or obstructions to visibility.

WVZ003-081100-
Northern Panhandle of West Virginia

CITY           SKY/WX    TMP DP  RH WIND       PRES   REMARKS
WHEELING       MOCLDY    38  22  52 SE7       29.67F
$$

WVZ009-081100-
Northwest West Virginia

CITY           SKY/WX    TMP DP  RH WIND       PRES   REMARKS
PARKERSBURG      N/A     36  23  59 SE3       29.72F
$$

WVZ006-081100-
Western West Virginia

CITY           SKY/WX    TMP DP  RH WIND       PRES   REMARKS
HUNTINGTON     MOCLDY    39  22  50 S7        29.68F
$$

WVZ015-081100-
West Central West Virginia

CITY           SKY/WX    TMP DP  RH WIND       PRES   REMARKS
CHARLESTON     MOCLDY    32  25  75 CALM      29.71F
$$

WVZ022-031-081100-
North Central West Virginia

CITY           SKY/WX    TMP DP  RH WIND       PRES   REMARKS
CLARKSBURG       N/A     27  23  85 CALM      29.71F
MORGANTOWN       N/A     29  21  72 S3        29.72F
$$

WVZ025-035-042-045-081100-
Southern West Virginia

CITY           SKY/WX    TMP DP  RH WIND       PRES   REMARKS
BECKLEY          N/A     33  19  56 S5        29.72F
LOGAN          MOCLDY    37  21  52 CALM      29.71F
BLUEFIELD        N/A     32  20  61 SW8       29.73F
LEWISBURG      CLOUDY    26  23  86 CALM      29.74F
$$

WVZ047-081100-
Northern Mountains of West Virginia

CITY           SKY/WX    TMP DP  RH WIND       PRES   REMARKS
ELKINS           N/A     19  16  88 CALM      29.74F
$$

WVZ052-081100-
Eastern Panhandle of West Virginia

CITY           SKY/WX    TMP DP  RH WIND       PRES   REMARKS
MARTINSBURG      N/A     19  17  92 SE3       29.79S FOG
PETERSBURG       N/A     23  21  94 CALM      29.79F
$$



USA.gov is the U.S. government's official web portal to all federal, state and local government web resources and services.